Weather History for Guthrie, OK

Change the Weather History Date:

Wednesday, December 11, 2013

  Actual Average Record
Temperature  
Mean Temperature 30 °F -  
Max Temperature 39 °F 52 °F 70 °F (1990)
Min Temperature 21 °F 30 °F 6 °F (1966)
Degree Days  
Heating Degree Days 35    
Moisture  
Dew Point 18 °F    
Average Humidity 62    
Maximum Humidity 85    
Minimum Humidity 45    
Precipitation  
Precipitation 0.00 in - - ()
Sea Level Pressure  
Sea Level Pressure 30.51 in    
Wind  
Wind Speed 6 mph (NE)    
Max Wind Speed 16 mph    
Max Gust Speed 23 mph    
Visibility 8 miles    
Events      
Averages and records for this station are not official NWS values.
T = Trace of Precipitation, MM = Missing Value Source: NWS Daily Summary

Daily Weather History Graph

Daily Weather History Graph

Search for Another Location

Airport:

Trip Planner

Search our weather history database for the weather conditions in past years. The results will help you decide how hot, cold, wet, or windy it might be!

Date:

Astronomy

Dec. 11, 2013 Rise Set
Actual Time 7:29 AM CST 5:16 PM CST
Civil Twilight 7:01 AM CST 5:44 PM CST
Nautical Twilight 6:29 AM CST 6:16 PM CST
Astronomical Twilight 5:58 AM CST 6:47 PM CST
Moon 1:42 PM CST (12/11) 2:01 AM CST (12/11)
Length of Visible Light 10h 43m
Length of Day
9h 46m
Waxing Gibbous, 72% of the Moon is Illuminated
Dec 11
Waxing Gibbous
Dec 17
Full
Dec 25
Last Quarter
Jan 1
New
Jan 7
First Quarter

Hourly Weather History & Observations

Time (CST) Temp. Windchill Dew Point Humidity Pressure Visibility Wind Dir Wind Speed Gust Speed Precip Events Conditions
12:53 AM 32.0 °F 24.2 °F 18.0 °F 56% 30.23 in 9.0 mi South 9.2 mph - N/A   Clear
1:53 AM 33.1 °F 24.9 °F 19.0 °F 56% 30.25 in 8.0 mi South 10.4 mph - N/A   Clear
2:53 AM 30.0 °F - 19.0 °F 64% 30.32 in 8.0 mi Calm Calm - N/A   Clear
3:53 AM 26.1 °F - 19.0 °F 75% 30.33 in 8.0 mi Calm Calm - N/A   Clear
4:53 AM 25.0 °F 19.3 °F 18.0 °F 75% 30.35 in 8.0 mi SSE 4.6 mph - N/A   Clear
5:53 AM 21.9 °F - 17.1 °F 82% 30.38 in 7.0 mi Calm Calm - N/A   Clear
6:53 AM 23.0 °F - 17.1 °F 78% 30.43 in 6.0 mi Calm Calm - N/A   Haze
7:53 AM 21.0 °F - 17.1 °F 85% 30.48 in 4.0 mi Calm Calm - N/A   Clear
8:53 AM 26.1 °F 17.6 °F 18.0 °F 71% 30.52 in 5.0 mi North 8.1 mph - N/A   Haze
9:53 AM 32.0 °F 21.2 °F 21.0 °F 64% 30.56 in 7.0 mi NE 16.1 mph 23.0 mph N/A   Clear
10:53 AM 34.0 °F 25.0 °F 21.9 °F 61% 30.58 in 7.0 mi NNE 12.7 mph 20.7 mph N/A   Clear
11:53 AM 37.0 °F 30.4 °F 24.1 °F 59% 30.58 in 8.0 mi NNE 9.2 mph 17.3 mph N/A   Clear
12:53 PM 37.9 °F 30.0 °F 21.9 °F 53% 30.56 in 10.0 mi NNE 12.7 mph 18.4 mph N/A   Clear
1:53 PM 39.9 °F 33.9 °F 21.0 °F 47% 30.56 in 10.0 mi NNE 9.2 mph 19.6 mph N/A   Clear
2:53 PM 39.9 °F 33.9 °F 21.0 °F 47% 30.56 in 10.0 mi NE 9.2 mph - N/A   Clear
3:53 PM 39.9 °F 33.4 °F 19.9 °F 45% 30.58 in 10.0 mi NE 10.4 mph - N/A   Clear
4:53 PM 37.9 °F 33.5 °F 19.0 °F 47% 30.59 in 10.0 mi NNE 5.8 mph - N/A   Clear
5:53 PM 34.0 °F - 16.0 °F 48% 30.61 in 10.0 mi Calm Calm - N/A   Clear
6:53 PM 30.9 °F 27.5 °F 16.0 °F 54% 30.62 in 10.0 mi ENE 3.5 mph - N/A   Clear
7:53 PM 28.9 °F - 15.1 °F 56% 30.64 in 10.0 mi Calm Calm - N/A   Clear
8:53 PM 28.0 °F 21.7 °F 15.1 °F 58% 30.64 in 10.0 mi East 5.8 mph - N/A   Clear
9:53 PM 25.0 °F - 16.0 °F 69% 30.64 in 10.0 mi Calm Calm - N/A   Clear
10:53 PM 24.1 °F - 14.0 °F 65% 30.65 in 10.0 mi Calm Calm - N/A   Clear
11:53 PM 21.9 °F - 14.0 °F 72% 30.65 in 10.0 mi Calm Calm - N/A   Clear